TimeEDT,TemperatureF,Dew PointF,Humidity,Sea Level PressureIn,VisibilityMPH,Wind Direction,Wind SpeedMPH,Gust SpeedMPH,PrecipitationIn,Events,Conditions,WindDirDegrees,DateUTC
12:15 AM,42.8,42.8,100,30.16,10.0,Calm,Calm,-,N/A,,Clear,0,2013-10-28 04:15:00
12:35 AM,41.0,41.0,100,30.16,10.0,NNE,4.6,-,N/A,,Clear,20,2013-10-28 04:35:00
12:55 AM,41.0,41.0,100,30.16,10.0,NNE,3.5,-,N/A,,Clear,20,2013-10-28 04:55:00
1:15 AM,42.8,42.8,100,30.16,10.0,North,5.8,-,N/A,,Clear,10,2013-10-28 05:15:00
1:35 AM,41.0,41.0,100,30.16,10.0,North,3.5,-,N/A,,Clear,350,2013-10-28 05:35:00
1:55 AM,41.0,41.0,100,30.16,10.0,Calm,Calm,-,N/A,,Clear,0,2013-10-28 05:55:00
2:15 AM,41.0,41.0,100,30.16,10.0,Calm,Calm,-,N/A,,Clear,0,2013-10-28 06:15:00
2:35 AM,41.0,41.0,100,30.16,10.0,Calm,Calm,-,N/A,,Clear,0,2013-10-28 06:35:00
2:55 AM,41.0,41.0,100,30.16,10.0,Calm,Calm,-,N/A,,Clear,0,2013-10-28 06:55:00
3:15 AM,41.0,41.0,100,30.16,10.0,NNE,3.5,-,N/A,,Clear,20,2013-10-28 07:15:00
3:35 AM,39.2,39.2,100,30.16,10.0,Calm,Calm,-,N/A,,Clear,0,2013-10-28 07:35:00
3:55 AM,39.2,39.2,100,30.16,10.0,Calm,Calm,-,N/A,,Clear,0,2013-10-28 07:55:00
4:15 AM,37.4,37.4,100,30.17,10.0,Calm,Calm,-,N/A,,Clear,0,2013-10-28 08:15:00
4:35 AM,37.4,37.4,100,30.17,10.0,Calm,Calm,-,N/A,,Clear,0,2013-10-28 08:35:00
4:55 AM,37.4,37.4,100,30.17,10.0,Calm,Calm,-,N/A,,Clear,0,2013-10-28 08:55:00
5:15 AM,37.4,37.4,100,30.18,10.0,North,3.5,-,N/A,,Clear,360,2013-10-28 09:15:00
5:35 AM,37.4,37.4,100,30.18,10.0,North,3.5,-,N/A,,Clear,10,2013-10-28 09:35:00
5:55 AM,37.4,37.4,100,30.19,10.0,Calm,Calm,-,N/A,,Clear,0,2013-10-28 09:55:00
6:15 AM,37.4,37.4,100,30.19,10.0,North,3.5,-,N/A,,Clear,350,2013-10-28 10:15:00
6:35 AM,37.4,37.4,100,30.19,10.0,North,3.5,-,N/A,,Clear,360,2013-10-28 10:35:00
6:55 AM,37.4,37.4,100,30.20,10.0,Calm,Calm,-,N/A,,Clear,0,2013-10-28 10:55:00
7:15 AM,37.4,37.4,100,30.21,7.0,Calm,Calm,-,N/A,,Clear,0,2013-10-28 11:15:00
7:35 AM,35.6,-9999,N/A,30.21,10.0,Calm,Calm,-,N/A,,Clear,0,2013-10-28 11:35:00
7:55 AM,37.4,-9999,N/A,30.23,10.0,Calm,Calm,-,N/A,,Clear,0,2013-10-28 11:55:00
8:15 AM,37.4,-9999,N/A,30.24,7.0,Calm,Calm,-,N/A,,Clear,0,2013-10-28 12:15:00
8:35 AM,39.2,-9999,N/A,30.24,10.0,Calm,Calm,-,N/A,,Clear,0,2013-10-28 12:35:00
8:55 AM,41.0,41.0,100,30.25,10.0,Calm,Calm,-,N/A,,Clear,0,2013-10-28 12:55:00
9:15 AM,44.6,44.6,100,30.26,10.0,Calm,Calm,-,N/A,,Clear,0,2013-10-28 13:15:00
9:35 AM,46.4,44.6,93,30.26,10.0,Calm,Calm,-,N/A,,Clear,0,2013-10-28 13:35:00
9:55 AM,48.2,44.6,87,30.27,10.0,Calm,Calm,-,N/A,,Clear,0,2013-10-28 13:55:00
10:15 AM,50.0,44.6,82,30.27,10.0,Calm,Calm,-,N/A,,Clear,0,2013-10-28 14:15:00
10:35 AM,51.8,44.6,76,30.27,10.0,Calm,Calm,-,N/A,,Clear,0,2013-10-28 14:35:00
10:55 AM,53.6,44.6,72,30.27,10.0,North,3.5,-,N/A,,Clear,350,2013-10-28 14:55:00
11:15 AM,55.4,44.6,67,30.27,10.0,Calm,Calm,-,N/A,,Clear,0,2013-10-28 15:15:00
11:35 AM,57.2,46.4,67,30.27,10.0,Calm,Calm,-,N/A,,Clear,0,2013-10-28 15:35:00
11:55 AM,60.8,46.4,59,30.27,10.0,NNW,3.5,-,N/A,,Clear,340,2013-10-28 15:55:00
12:15 PM,60.8,44.6,55,30.26,10.0,Calm,Calm,-,N/A,,Clear,0,2013-10-28 16:15:00
12:35 PM,62.6,46.4,55,30.25,10.0,North,3.5,-,N/A,,Clear,350,2013-10-28 16:35:00
12:55 PM,64.4,46.4,52,30.24,10.0,Calm,Calm,-,N/A,,Clear,0,2013-10-28 16:55:00
1:15 PM,64.4,48.2,56,30.23,10.0,Calm,Calm,-,N/A,,Clear,0,2013-10-28 17:15:00
1:35 PM,66.2,48.2,52,30.23,10.0,South,4.6,-,N/A,,Clear,180,2013-10-28 17:35:00
1:55 PM,66.2,48.2,52,30.22,10.0,South,3.5,-,N/A,,Clear,170,2013-10-28 17:55:00
2:15 PM,68.0,48.2,49,30.21,10.0,SSE,3.5,-,N/A,,Clear,150,2013-10-28 18:15:00
2:35 PM,69.8,48.2,46,30.21,10.0,Calm,Calm,-,N/A,,Clear,0,2013-10-28 18:35:00
2:55 PM,69.8,46.4,43,30.21,10.0,Calm,Calm,-,N/A,,Clear,0,2013-10-28 18:55:00
3:15 PM,69.8,46.4,43,30.20,10.0,Calm,Calm,-,N/A,,Clear,0,2013-10-28 19:15:00
3:35 PM,69.8,46.4,43,30.20,10.0,Calm,Calm,-,N/A,,Clear,0,2013-10-28 19:35:00
3:55 PM,69.8,44.6,40,30.21,10.0,South,4.6,-,N/A,,Clear,190,2013-10-28 19:55:00
4:15 PM,69.8,44.6,40,30.21,10.0,SW,3.5,-,N/A,,Clear,230,2013-10-28 20:15:00
4:35 PM,69.8,44.6,40,30.21,10.0,Calm,Calm,-,N/A,,Clear,0,2013-10-28 20:35:00
4:55 PM,68.0,46.4,46,30.21,10.0,SW,3.5,-,N/A,,Clear,220,2013-10-28 20:55:00
5:15 PM,68.0,46.4,46,30.21,10.0,SSW,3.5,-,N/A,,Clear,210,2013-10-28 21:15:00
5:35 PM,66.2,44.6,46,30.22,10.0,SSW,3.5,-,N/A,,Clear,210,2013-10-28 21:35:00
5:55 PM,64.4,46.4,52,30.22,10.0,Calm,Calm,-,N/A,,Clear,0,2013-10-28 21:55:00
6:15 PM,59.0,48.2,67,30.23,10.0,Calm,Calm,-,N/A,,Clear,0,2013-10-28 22:15:00
6:35 PM,55.4,48.2,77,30.23,10.0,Calm,Calm,-,N/A,,Clear,0,2013-10-28 22:35:00
6:55 PM,53.6,46.4,77,30.24,7.0,Calm,Calm,-,N/A,,Clear,0,2013-10-28 22:55:00
7:15 PM,51.8,46.4,82,30.25,7.0,Calm,Calm,-,N/A,,Clear,0,2013-10-28 23:15:00
7:35 PM,51.8,46.4,82,30.25,10.0,Calm,Calm,-,N/A,,Clear,0,2013-10-28 23:35:00
7:55 PM,51.8,46.4,82,30.25,10.0,Calm,Calm,-,N/A,,Clear,0,2013-10-28 23:55:00
8:15 PM,48.2,46.4,93,30.26,10.0,Calm,Calm,-,N/A,,Clear,0,2013-10-29 00:15:00
8:35 PM,48.2,48.2,100,30.26,10.0,Calm,Calm,-,N/A,,Clear,0,2013-10-29 00:35:00
8:55 PM,48.2,48.2,100,30.26,10.0,Calm,Calm,-,N/A,,Clear,0,2013-10-29 00:55:00
9:15 PM,48.2,48.2,100,30.26,10.0,North,3.5,-,N/A,,Clear,10,2013-10-29 01:15:00
9:35 PM,48.2,48.2,100,30.27,10.0,North,3.5,-,N/A,,Clear,360,2013-10-29 01:35:00
9:55 PM,46.4,46.4,100,30.28,10.0,Calm,Calm,-,N/A,,Clear,0,2013-10-29 01:55:00
10:15 PM,46.4,46.4,100,30.29,10.0,Calm,Calm,-,N/A,,Clear,0,2013-10-29 02:15:00
10:35 PM,46.4,46.4,100,30.29,10.0,Calm,Calm,-,N/A,,Clear,0,2013-10-29 02:35:00
10:55 PM,46.4,46.4,100,30.29,10.0,North,3.5,-,N/A,,Clear,10,2013-10-29 02:55:00
11:15 PM,46.4,46.4,100,30.29,10.0,Calm,Calm,-,N/A,,Clear,0,2013-10-29 03:15:00
11:35 PM,46.4,46.4,100,30.29,10.0,Calm,Calm,-,N/A,,Clear,0,2013-10-29 03:35:00
11:55 PM,44.6,44.6,100,30.29,10.0,NNE,3.5,-,N/A,,Clear,20,2013-10-29 03:55:00